When you browse on this site, cookies collect data to enhance your experience and personalize the content and advertising you see.
Visit our Privacy Policy to learn more. By continuing to use the site, you agree to this use of cookies and data.
  • In Switzerland
  • List of Countries
  • For 7 days
  • Water Temperature
  • Weather Map
  • Weather Widgets
  • user-avatar
    Login

    Hourly Weather Bern

    Today, 12 November, Tuesday

    Time Temperature Precipitation Wind Pressure Humidity
    00:00 +4°C° 0 mm 2 mps 710 mmHg 96%
    01:00 +3°C° 0.2 mm 2 mps 709 mmHg 96%
    02:00 +3°C° 0.2 mm 2 mps 709 mmHg 95%
    03:00 +2°C° 0.2 mm 2 mps 709 mmHg 95%
    04:00 +2°C° 0 mm 2 mps 709 mmHg 95%
    05:00 +2°C° 0 mm 1 mps 709 mmHg 95%
    06:00 +2°C° 0 mm 1 mps 709 mmHg 94%
    07:00 +3°C° 0 mm 1 mps 709 mmHg 90%
    08:00 +3°C° 0 mm 2 mps 709 mmHg 86%
    09:00 +4°C° 0 mm 2 mps 709 mmHg 82%
    10:00 +5°C° 0 mm 2 mps 708 mmHg 77%
    11:00 +6°C° 0 mm 2 mps 708 mmHg 72%
    12:00 +7°C° 0 mm 2 mps 708 mmHg 67%
    13:00 +6°C° 0 mm 2 mps 707 mmHg 70%
    14:00 +6°C° 0 mm 2 mps 707 mmHg 74%
    15:00 +6°C° 0 mm 1 mps 706 mmHg 77%
    16:00 +5°C° 0 mm 1 mps 706 mmHg 81%
    17:00 +3°C° 0 mm 1 mps 706 mmHg 85%
    18:00 +2°C° 0 mm 1 mps 706 mmHg 89%
    19:00 +2°C° 0 mm 1 mps 706 mmHg 89%
    20:00 +2°C° 0 mm 1 mps 705 mmHg 89%
    21:00 +2°C° 0 mm 1 mps 705 mmHg 88%
    22:00 +2°C° 0.2 mm 1 mps 705 mmHg 91%
    23:00 +2°C° 0.2 mm 1 mps 705 mmHg 94%

    Tomorrow, 13 November, Wednesday

    Time Temperature Precipitation Wind Pressure Humidity
    00:00 +2°C° 0.2 mm 0 mps 705 mmHg 96%
    01:00 +1°C° 0.1 mm 0 mps 705 mmHg 96%
    02:00 +1°C° 0.1 mm 0 mps 705 mmHg 95%
    03:00 +1°C° 0.1 mm 0 mps 705 mmHg 95%
    04:00 +2°C° 0 mm 1 mps 705 mmHg 95%
    05:00 +2°C° 0 mm 1 mps 705 mmHg 94%
    06:00 +2°C° 0 mm 1 mps 705 mmHg 94%
    07:00 +2°C° 0 mm 1 mps 705 mmHg 89%
    08:00 +3°C° 0 mm 1 mps 705 mmHg 85%
    09:00 +4°C° 0 mm 1 mps 705 mmHg 80%
    10:00 +5°C° 0 mm 1 mps 705 mmHg 76%
    11:00 +6°C° 0 mm 1 mps 705 mmHg 72%
    12:00 +7°C° 0 mm 1 mps 705 mmHg 68%
    13:00 +5°C° 0 mm 0 mps 705 mmHg 71%
    14:00 +5°C° 0 mm 0 mps 705 mmHg 74%
    15:00 +4°C° 0 mm 0 mps 705 mmHg 78%
    16:00 +3°C° 0 mm 0 mps 705 mmHg 82%
    17:00 +3°C° 0 mm 1 mps 705 mmHg 86%
    18:00 +1°C° 0 mm 1 mps 706 mmHg 89%
    19:00 +1°C° 0 mm 1 mps 705 mmHg 89%
    20:00 +1°C° 0 mm 1 mps 705 mmHg 88%
    21:00 0°C° 0 mm 1 mps 705 mmHg 87%
    22:00 0°C° 0 mm 1 mps 705 mmHg 86%
    23:00 0°C° 0 mm 1 mps 704 mmHg 84%

    Day after tomorrow, 14 November, Thursday

    Time Temperature Precipitation Wind Pressure Humidity
    00:00 0°C° 0 mm 1 mps 704 mmHg 82%
    01:00 0°C° 0 mm 1 mps 704 mmHg 80%
    02:00 0°C° 0 mm 1 mps 704 mmHg 78%
    03:00 +1°C° 0 mm 1 mps 703 mmHg 76%
    04:00 0°C° 0 mm 1 mps 703 mmHg 76%
    05:00 0°C° 0 mm 1 mps 704 mmHg 76%
    06:00 0°C° 0 mm 1 mps 704 mmHg 76%
    07:00 +2°C° 0.1 mm 1 mps 704 mmHg 74%
    08:00 +3°C° 0.1 mm 1 mps 704 mmHg 71%
    09:00 +4°C° 0.1 mm 1 mps 705 mmHg 68%
    10:00 +5°C° 0 mm 1 mps 705 mmHg 66%
    11:00 +6°C° 0 mm 1 mps 704 mmHg 64%
    12:00 +7°C° 0 mm 1 mps 704 mmHg 62%
    13:00 +6°C° 0 mm 1 mps 704 mmHg 67%
    14:00 +6°C° 0 mm 1 mps 703 mmHg 72%
    15:00 +5°C° 0 mm 1 mps 703 mmHg 77%
    16:00 +5°C° 0 mm 1 mps 702 mmHg 80%
    17:00 +4°C° 0 mm 1 mps 702 mmHg 82%
    18:00 +3°C° 0 mm 1 mps 702 mmHg 84%
    19:00 +3°C° 0 mm 1 mps 702 mmHg 84%
    20:00 +3°C° 0 mm 1 mps 701 mmHg 85%
    21:00 +2°C° 0 mm 1 mps 701 mmHg 85%
    22:00 +2°C° 0.1 mm 1 mps 701 mmHg 87%
    23:00 +2°C° 0.1 mm 1 mps 700 mmHg 88%

    15 November, Friday

    Time Temperature Precipitation Wind Pressure Humidity
    00:00 +2°C° 0.1 mm 1 mps 700 mmHg 90%
    01:00 +2°C° 0.4 mm 1 mps 700 mmHg 92%
    02:00 +2°C° 0.4 mm 1 mps 700 mmHg 94%
    03:00 +1°C° 0.4 mm 0 mps 700 mmHg 96%
    04:00 +2°C° 0.8 mm 1 mps 701 mmHg 96%
    05:00 +2°C° 0.8 mm 1 mps 701 mmHg 97%
    06:00 +2°C° 0.8 mm 1 mps 702 mmHg 97%
    07:00 +2°C° 0.2 mm 2 mps 703 mmHg 95%
    08:00 +3°C° 0.2 mm 2 mps 703 mmHg 93%
    09:00 +3°C° 0.2 mm 2 mps 704 mmHg 91%
    10:00 +5°C° 0.1 mm 1 mps 704 mmHg 89%
    11:00 +5°C° 0.1 mm 1 mps 704 mmHg 86%
    12:00 +6°C° 0.1 mm 1 mps 704 mmHg 84%
    13:00 +5°C° 0 mm 1 mps 704 mmHg 86%
    14:00 +5°C° 0 mm 1 mps 704 mmHg 88%
    15:00 +4°C° 0 mm 0 mps 704 mmHg 90%
    16:00 +3°C° 0 mm 0 mps 704 mmHg 91%
    17:00 +3°C° 0 mm 1 mps 705 mmHg 93%
    18:00 +2°C° 0 mm 1 mps 705 mmHg 95%
    19:00 +2°C° 0 mm 1 mps 706 mmHg 94%
    20:00 +2°C° 0 mm 1 mps 706 mmHg 94%
    21:00 +1°C° 0 mm 0 mps 707 mmHg 94%
    22:00 +2°C° 0 mm 1 mps 707 mmHg 93%
    23:00 +2°C° 0 mm 1 mps 707 mmHg 92%

    16 November, Saturday

    Time Temperature Precipitation Wind Pressure Humidity
    00:00 +2°C° 0 mm 1 mps 708 mmHg 92%
    01:00 +2°C° 0 mm 1 mps 708 mmHg 91%
    02:00 +2°C° 0 mm 1 mps 708 mmHg 90%
    03:00 +1°C° 0 mm 1 mps 708 mmHg 89%
    04:00 +1°C° 0 mm 1 mps 709 mmHg 89%
    05:00 +1°C° 0 mm 1 mps 709 mmHg 89%
    06:00 0°C° 0 mm 1 mps 709 mmHg 89%
    07:00 +2°C° 0 mm 1 mps 710 mmHg 85%
    08:00 +2°C° 0 mm 0 mps 710 mmHg 82%
    09:00 +4°C° 0 mm 0 mps 711 mmHg 78%
    10:00 +5°C° 0 mm 0 mps 711 mmHg 77%
    11:00 +6°C° 0 mm 0 mps 711 mmHg 76%
    12:00 +7°C° 0 mm 1 mps 710 mmHg 74%
    13:00 +6°C° 0 mm 0 mps 710 mmHg 79%
    14:00 +5°C° 0 mm 0 mps 710 mmHg 84%
    15:00 +4°C° 0 mm 0 mps 710 mmHg 89%
    16:00 +3°C° 0 mm 0 mps 711 mmHg 90%
    17:00 +2°C° 0 mm 0 mps 711 mmHg 91%
    18:00 +1°C° 0 mm 0 mps 711 mmHg 92%
    19:00 +2°C° 0 mm 1 mps 711 mmHg 92%
    20:00 +2°C° 0 mm 1 mps 711 mmHg 91%
    21:00 +2°C° 0 mm 1 mps 711 mmHg 91%
    22:00 +2°C° 0 mm 1 mps 711 mmHg 91%
    23:00 0°C° 0 mm 0 mps 710 mmHg 90%

    17 November, Sunday

    Time Temperature Precipitation Wind Pressure Humidity
    00:00 0°C° 0 mm 0 mps 710 mmHg 90%
    01:00 0°C° 0 mm 0 mps 710 mmHg 90%
    02:00 0°C° 0 mm 0 mps 709 mmHg 90%
    03:00 0°C° 0 mm 0 mps 709 mmHg 89%
    04:00 +1°C° 0 mm 0 mps 709 mmHg 89%
    05:00 +2°C° 0 mm 1 mps 708 mmHg 89%
    06:00 +2°C° 0 mm 1 mps 708 mmHg 89%
    07:00 +3°C° 0 mm 1 mps 708 mmHg 87%
    08:00 +4°C° 0 mm 1 mps 707 mmHg 85%
    09:00 +4°C° 0 mm 1 mps 707 mmHg 83%
    10:00 +4°C° 0 mm 2 mps 706 mmHg 82%
    11:00 +5°C° 0 mm 2 mps 706 mmHg 81%
    12:00 +4°C° 0 mm 3 mps 705 mmHg 80%
    13:00 +5°C° 0 mm 2 mps 705 mmHg 83%
    14:00 +4°C° 0 mm 2 mps 705 mmHg 87%
    15:00 +4°C° 0 mm 2 mps 704 mmHg 90%
    16:00 +3°C° 1.2 mm 2 mps 704 mmHg 93%
    17:00 +2°C° 1.2 mm 2 mps 705 mmHg 96%
    18:00 +3°C° 1.2 mm 1 mps 705 mmHg 99%
    19:00 +3°C° 0.6 mm 1 mps 705 mmHg 98%
    20:00 +3°C° 0.6 mm 1 mps 705 mmHg 98%
    21:00 +3°C° 0.6 mm 1 mps 705 mmHg 98%
    22:00 +3°C° 0.1 mm 1 mps 705 mmHg 98%
    23:00 +2°C° 0.1 mm 0 mps 705 mmHg 98%
    Show more